TimeCET,TemperatureF,Dew PointF,Humidity,Sea Level PressureIn,VisibilityMPH,Wind Direction,Wind SpeedMPH,Gust SpeedMPH,PrecipitationIn,Events,Conditions,WindDirDegrees,DateUTC
12:45 AM,35.6,35.6,100,30.24,0.1,NNW,2.3,-,N/A,Fog,Fog,340,2012-11-16 23:45:00
1:00 AM,36,36,98,30.25,0,NNW,2.2,,,Fog,Heavy Fog,340,2012-11-17 00:00:00
1:45 AM,35.6,35.6,100,30.24,0.1,NNE,3.5,-,N/A,Fog,Fog,30,2012-11-17 00:45:00
2:45 AM,35.6,35.6,100,30.21,0.1,SE,4.6,-,N/A,Fog,Fog,140,2012-11-17 01:45:00
3:45 AM,35.6,35.6,100,30.21,0.1,Calm,Calm,-,N/A,Fog,Fog,0,2012-11-17 02:45:00
4:45 AM,35.6,35.6,100,30.21,0.1,ESE,2.3,-,N/A,Fog,Fog,110,2012-11-17 03:45:00
5:15 AM,35.6,35.6,100,30.21,0.1,SSE,2.3,-,N/A,Fog,Fog,160,2012-11-17 04:15:00
5:45 AM,35.6,35.6,100,30.18,0.2,ESE,2.3,-,N/A,Fog,Fog,120,2012-11-17 04:45:00
6:15 AM,35.6,35.6,100,30.18,1.6,ESE,5.8,-,N/A,,Mostly Cloudy,120,2012-11-17 05:15:00
6:45 AM,37.4,37.4,100,30.18,-9999.0,SE,6.9,-,N/A,,Scattered Clouds,130,2012-11-17 05:45:00
7:00 AM,37,37,99,30.21,2,SE,6.7,,,Fog,Light Fog,130,2012-11-17 06:00:00
7:15 AM,35.6,35.6,100,30.18,-9999.0,SE,5.8,-,N/A,,Partly Cloudy,130,2012-11-17 06:15:00
7:45 AM,37.4,37.4,100,30.21,2.5,SSE,5.8,-,N/A,,Partly Cloudy,150,2012-11-17 06:45:00
8:15 AM,39.2,39.2,100,30.21,2.5,SSE,6.9,-,N/A,,Scattered Clouds,150,2012-11-17 07:15:00
8:45 AM,41.0,41.0,100,30.21,2.5,South,6.9,-,N/A,,Partly Cloudy,170,2012-11-17 07:45:00
9:15 AM,41.0,41.0,100,30.21,2.8,SSE,9.2,-,N/A,,Partly Cloudy,160,2012-11-17 08:15:00
9:45 AM,42.8,41.0,93,30.18,3.1,SSE,9.2,-,N/A,,Partly Cloudy,150,2012-11-17 08:45:00
10:15 AM,44.6,41.0,87,30.18,3.7,SSE,12.7,-,N/A,,Partly Cloudy,150,2012-11-17 09:15:00
10:45 AM,46.4,42.8,87,30.18,4.3,SSE,10.4,-,N/A,,Partly Cloudy,160,2012-11-17 09:45:00
11:15 AM,48.2,42.8,82,30.18,5.0,SE,8.1,-,N/A,,Partly Cloudy,140,2012-11-17 10:15:00
11:45 AM,50.0,42.8,76,30.15,6.2,SE,10.4,-,N/A,,Partly Cloudy,140,2012-11-17 10:45:00
12:15 PM,50.0,42.8,76,30.15,6.2,SE,10.4,-,N/A,,Partly Cloudy,130,2012-11-17 11:15:00
12:45 PM,50.0,42.8,76,30.15,6.2,SE,10.4,-,N/A,,Partly Cloudy,140,2012-11-17 11:45:00
1:00 PM,51,43,67,30.15,7,SE,11.2,,,,Partly Cloudy,140,2012-11-17 12:00:00
1:15 PM,51.8,42.8,71,30.15,6.2,SE,10.4,-,N/A,,Partly Cloudy,140,2012-11-17 12:15:00
1:45 PM,51.8,44.6,76,30.12,6.2,SE,8.1,-,N/A,,Partly Cloudy,140,2012-11-17 12:45:00
2:15 PM,51.8,44.6,76,30.12,6.2,SE,10.4,-,N/A,,Scattered Clouds,140,2012-11-17 13:15:00
2:45 PM,51.8,44.6,76,30.12,6.2,SE,6.9,-,N/A,,Mostly Cloudy,130,2012-11-17 13:45:00
3:15 PM,51.8,44.6,76,30.12,6.2,SE,8.1,-,N/A,,Mostly Cloudy,130,2012-11-17 14:15:00
3:45 PM,51.8,44.6,76,30.12,6.2,ESE,5.8,-,N/A,,Mostly Cloudy,120,2012-11-17 14:45:00
4:15 PM,50.0,44.6,82,30.12,6.2,East,5.8,-,N/A,,Mostly Cloudy,100,2012-11-17 15:15:00
4:45 PM,50.0,44.6,82,30.09,6.2,East,5.8,-,N/A,,Mostly Cloudy,100,2012-11-17 15:45:00
5:15 PM,48.2,44.6,87,30.09,-9999.0,ESE,5.8,-,N/A,,Clear,120,2012-11-17 16:15:00
5:45 PM,46.4,42.8,87,30.09,5.0,ESE,5.8,-,N/A,,Unknown,110,2012-11-17 16:45:00
6:15 PM,46.4,42.8,87,30.09,5.0,ESE,5.8,-,N/A,,Unknown,110,2012-11-17 17:15:00
6:45 PM,44.6,42.8,93,30.12,5.0,SE,6.9,-,N/A,,Unknown,140,2012-11-17 17:45:00
7:00 PM,45,42,85,30.12,5,SE,6.7,,,,Partly Cloudy,140,2012-11-17 18:00:00
7:15 PM,44.6,41.0,87,30.12,5.0,SSE,6.9,-,N/A,,Unknown,150,2012-11-17 18:15:00
7:45 PM,42.8,41.0,93,30.12,-9999.0,SSE,5.8,-,N/A,,Clear,150,2012-11-17 18:45:00
8:15 PM,42.8,41.0,93,30.12,-9999.0,SE,5.8,-,N/A,,Clear,140,2012-11-17 19:15:00
8:45 PM,42.8,39.2,87,30.12,-9999.0,ESE,5.8,-,N/A,,Clear,120,2012-11-17 19:45:00
9:45 PM,41.0,39.2,93,30.09,-9999.0,SE,5.8,-,N/A,,Clear,140,2012-11-17 20:45:00
10:45 PM,41.0,39.2,93,30.09,-9999.0,ESE,8.1,-,N/A,,Clear,120,2012-11-17 21:45:00
11:45 PM,41.0,37.4,87,30.09,-9999.0,SE,9.2,-,N/A,,Clear,130,2012-11-17 22:45:00